User: anonymous   Login
Location: Peebles
(55.6412°N, 3.1714°W)
Time: 02:26:22
(UTC+01:00)
Language:

CZ-4B R/B - Orbit

View from above orbital plane
View from above orbital plane
View from above satellite
View from above satellite

Ground track
Ground track

The orbit data is extracted from the following two-line orbital elements,

1 32959U 08026B   22181.55114101  .00000022  00000-0  21634-4 0  9990
2 32959  98.9449 164.0692 0069087 248.3788 221.3780 14.41893605741388
Epoch (UTC): 30 June 2022 13:13:38
Eccentricity: 0.0069087
inclination: 98.9449°
perigee height: 703 km
apogee height: 801 km
right ascension of ascending node: 164.0692°
argument of perigee: 248.3788°
revolutions per day: 14.41893605
mean anomaly at epoch: 221.3780°
orbit number at epoch: 74138

The dashed part of the orbit path shows where the satellite is in the earth's shadow,  

DLR